Terminal Aerodrome Forecast
Issued by NWS Boise, ID

Home | Current Version | Previous Version | Text Only | Print | Product List | Glossary On
Versions: 1 2 3 4 5 6 7 8 9 10 11 12 13
000
FTUS45 KBOI 201725
TAFBOI
TAF
KBOI 201725Z 2018/2118 31010KT P6SM SKC
     FM210300 14004KT P6SM SKC=

USA.gov is the U.S. government's official web portal to all federal, state and local government web resources and services.